Regional Weather Roundup
Issued by NWS Charleston, SC

Current Version | Previous Version | Text Only | Print | Product List | Glossary Off
Versions: 1 2 3 4 5 6 7 8 9 10 11 12 13 14 15 16 17 18 19 20 21 22 23 24 25 26 27 28 29 30 31 32 33 34 35 36 37 38 39 40 41 42 43 44 45 46 47 48 49 50

000
ASUS42 KCHS 190127
RWRCHS

REGIONAL WEATHER ROUNDUP
NATIONAL WEATHER SERVICE CHARLESTON SC
900 PM EDT FRI AUG 18 2017

NOTE: "FAIR" INDICATES FEW OR NO CLOUDS BELOW 12,000 FEET WITH NO
SIGNIFICANT WEATHER AND/OR OBSTRUCTIONS TO VISIBILITY.

NOT ALL STATIONS ARE QUALITY CONTROLLED. USE DATA WITH CAUTION...
ESPECIALLY DEWPOINT OBSERVATIONS.

SCZ027-030-031-034>040-042>050-190200-
...SOUTHEAST SOUTH CAROLINA...

CITY           SKY/WX    TMP DP  RH WIND       PRES   REMARKS
N CHARLESTON   CLEAR     83  78  85 S8        29.94R HX  93
WATERFRONT PRK   N/A    N/A N/A N/A SW8       29.78S
JOHNS ISLAND   FAIR      84  81  89 S8        29.95R HX  98
PINOPOLIS        N/A     86  79  79 VRB3      29.86R HX  99
MONCKS CORNER  FAIR      82  75  78 S6        29.93S
SUMMERVILLE    FAIR      82  77  83 S3        29.95R HX  91
BEAUFORT MCAS  CLEAR     86  81  85 S7        29.94R HX 102
BEAUFORT ARPT  FAIR      84  79  84 SW8       29.95R HX  96
HILTON HEAD IS CLEAR     86  81  84 S8G15     29.96R HX 102
WALTERBORO     CLEAR     82  77  83 S7        29.94S HX  91
ALLENDALE      NOT AVBL

...SOUTHERN MIDLANDS AND PEE DEE...

CITY           SKY/WX    TMP DP  RH WIND       PRES   REMARKS
GEORGETOWN     FAIR      81  81 100 S7        29.94S HX  91
KINGSTREE      FAIR      82  77  83 SE6       29.91S HX  91
ORANGEBURG     CLEAR     82  76  81 S5        29.92R
BARNWELL       CLOUDY    88  77  70 W15G24    29.94R THUNDER HX 100
AIKEN          FAIR      79  73  83 S6        29.97R
MANNING        FAIR      86  79  79 MISG      29.92R HX  99
COLUMBIA       PTCLDY    87  72  60 SW8       29.90R HX  93
SUMTER         PTCLDY    86  74  68 S7        29.88R HX  94
FLORENCE       CLEAR     85  75  72 S7        29.90R HX  93
MYRTLE BEACH   CLEAR     84  79  84 S15       29.93R HX  96
N MYRTLE BEACH CLEAR     84  80  88 SW16      29.91S HX  97

$$

GAZ063-065-086>088-099>101-113>116-118-119-134>141-150-190200-
...SOUTHEAST GEORGIA...

CITY           SKY/WX    TMP DP  RH WIND       PRES   REMARKS
SAVANNAH ARPT  CLEAR     86  77  74 S10       29.95R HX  97
HUNTER AAF     CLEAR     86  76  71 S6        29.93R HX  96
FORT STEWART   CLEAR     82  74  75 S5        29.93S
STATESBORO     PTCLDY    84  73  67 CALM      29.94S HX  90
SYLVANIA       MOCLDY    85  78  78 CALM      29.94S HX  97
CLAXTON        FAIR      86  76  72 CALM      29.96R HX  96

...CSRA...CENTRAL AND FAR SOUTHEAST GEORGIA...

CITY           SKY/WX    TMP DP  RH WIND       PRES   REMARKS
THOMSON        CLEAR     79  75  87 W3        29.99R
AUGUSTA-BUSH   PTCLDY    82  76  81 SE3       29.92R
AUGUSTA-DANIEL CLOUDY    87  71  58 S7        29.94R HX  93
SWAINSBORO     CLOUDY    86  75  70 CALM      29.95S HX  95
VIDALIA        MOCLDY    88  75  66 CALM      29.96R HX  97
EASTMAN        FAIR      82  69  65 CALM      29.98R
HAZLEHURST     MOCLDY    85  70  60 S6        29.95R
ALMA           MOCLDY    81  73  76 S7        29.97R
WAYCROSS       CLOUDY    78  75  88 SW7       29.98R
JESUP          FAIR      81  73  78 CALM      29.97R
BAXLEY         FAIR      79  73  83 SW7       29.96R
BRUNSWICK      CLEAR     79  73  83 CALM      29.97S
SAINT SIMONS   CLEAR     84  76  76 SW6       29.96R HX  93

$$

SCZ027-028-034-036>038-045-046-048>050-GAZ119-141-190200-
...LAKE AND SUPPLEMENTAL COASTAL OBSERVATIONS...

STATION/POSITION TIME  TEMP    WIND        PRES    WAVE   SWELL
                       AIR SEA DIR/SP/G            HT/PER HT/PER/DIR
                 (UTC) (F)     (DEG/KT/KT) (MB)    (FT/S) (FT/S/D)
WINYAH BAY       NOT AVBL
LAKE MURRAY      0020   89     220/  8/ 10 1011.5
ACE BASIN NERRS  NOT AVBL
FORT PULASKI     0100   86 87  220/  8/ 11 1014.5
SAPELO ISLAND    NOT AVBL

$$

ANZ835-935-AMZ111-154-330-350-352-354-370-450-454-472-190200-
...C-MAN AND BUOY OBSERVATIONS...

STATION/POSITION TIME  TEMP    WIND        PRES    WAVE   SWELL
                       AIR SEA DIR/SP/G            HT/PER HT/PER/DIR
                 (UTC) (F)     (DEG/KT/KT) (MB)    (FT/S) (FT/S/D)
BUOY 41004       0110   84 85  200/ 16/ 19 1013.7
BUOY 41008       0050   85 85  220/ 12/ 14 1014.1R   2/ 3   2/130/ 8
FOLLY BEACH CMAN 0100   85     200/ 14/ 17 1014.5R
CAPERS NEARSHORE 0108   83 85  210/ 16/ 21 1013.4R
FRIPP NEARSHORE  0108   86     210/ 14/ 19 1013.8R


STATION/POSITION TIME  TEMP    WIND        PRES    WAVE   SWELL
                       AIR SEA DIR/SP/G            HT/PER HT/PER/DIR
                 (UTC) (F)     (DEG/KT/KT) (MB)    (FT/S) (FT/S/D)
5E ST. MARYS GA  0100      85                N/A     1/ 9
FRYING PAN BUOY  0110   85 85  210/ 19/ 23 1013.3
BUOY 41025       0050   85 85  210/ 19/ 23 1012.4R   4/ 5   2/120/ 8
CAPE LOOKOUT NC  0100   84     210/ 11/ 14 1012.4R
BUOY 41002       0050   84 85  210/ 14/ 16 1016.3R   3/ 5   2/100/ 8
BUOY 41010       0110   85 85  160/ 12/ 14 1016.5
ST AUGUSTINE FL  0100   79 82  240/  3/  5 1015.4F


$$




USA.gov is the U.S. government's official web portal to all federal, state and local government web resources and services.